Regional Weather Roundup
Issued by NWS Sterling, VA

Home | Current Version | Previous Version | Text Only | Print | Product List | Glossary On
Versions: 1 2 3 4 5 6 7 8 9 10 11 12 13 14 15 16 17 18 19 20 21 22 23 24 25 26 27 28
000
ASUS41 KLWX 202311
RWRLWX

REGIONAL WEATHER ROUNDUP
NATIONAL WEATHER SERVICE BALTIMORE MD/WASHINGTON DC
700 PM EDT FRI APR 20 2018

Note: "FAIR" indicates few or no clouds below 12,000 feet
with no significant weather and/or obstructions to visibility.
 TC=TEMPERATURE CELSIUS

 * =Non NWS site. Station does not report precipitation (e.g. rain,
    snow, etc.), thunder, or fog.

DCZ001-MDZ009-015-VAZ040>042-051-053>054-210000-
WASHINGTON METRO

CITY           SKY/WX    TMP DP  RH WIND       PRES   REMARKS
WASHINGTON NAT FAIR      59  25  27 NW17G23   30.29R
DULLES         FAIR      58  25  28 N16       30.29R
ANDREWS AFB    FAIR      56  25  30 NW13      30.27S
FT BELVOIR     FAIR      60  24  25 N8G21     30.28R
QUANTICO       FAIR      60  26  27 N9        30.29S
COLLEGE PARK*  FAIR      57  25  29 N12       30.28S
LEESBURG*      FAIR      59  30  33 N12G17    30.30S
MANASSAS*      FAIR      58  27  30 NW14      30.29R
GAITHERSBURG*  FAIR      55  26  32 VRB6      30.29R

$$

MDZ006>007-011-014-210000-
BALTIMORE METRO

CITY           SKY/WX    TMP DP  RH WIND       PRES   REMARKS
BWI AIRPORT    FAIR      56  26  31 NW14      30.27R
MD SCIENCE CTR   N/A     58  24  27 MISG      30.28S
MARTIN STATE   CLEAR     57  28  33 NW15      30.28S
ANNAPOLIS      FAIR      59  30  33 NW13G22   30.27R
FORT MEADE*    FAIR      55  27  33 NW7G18    30.30S

$$

MDZ012-015-019>023-210000-
MARYLAND EASTERN SHORE

CITY           SKY/WX    TMP DP  RH WIND       PRES   REMARKS
OCEAN CITY     FAIR      53  29  39 N13       30.28R
SALISBURY      FAIR      55  28  35 NW10      30.27R
BAY BRIDGE AP* FAIR      55  36  47 N8        30.28S
CAMBRIDGE*     CLEAR     55  28  35 NW9G15    30.28S
EASTON*        CLEAR     55  27  33 N8        30.31R

$$

MDZ017>025-210000-
SOUTHERN MARYLAND

CITY           SKY/WX    TMP DP  RH WIND       PRES   REMARKS
PATUXENT RIVER FAIR      57  32  38 NE9       30.27S
ST INIGOES     FAIR      54  32  43 NE7       30.27R
LEONARDTOWN*   FAIR      55  27  33 N5        30.29R

$$

MDZ003>005-210000-
NORTH CENTRAL MARYLAND

CITY           SKY/WX    TMP DP  RH WIND       PRES   REMARKS
FREDERICK*     CLEAR     57  18  21 N12G21    30.32R
HAGERSTOWN APT FAIR      56  25  30 NW14      30.29R
WESTMINSTER*   FAIR      57  27  30 NW13G20   30.28S

$$

MDZ501>502-210000-
WESTERN MARYLAND

CITY           SKY/WX    TMP DP  RH WIND       PRES   REMARKS
OAKLAND*       FAIR      43  19  39 NW7G18    30.32S
CUMBERLAND*    FAIR      55  23  28 NW15G23   30.37S

$$

VAZ025>031-210000-
SHENANDOAH VALLEY

CITY           SKY/WX    TMP DP  RH WIND       PRES   REMARKS
WINCHESTER*    FAIR      54  25  32 NW13G22   30.32R
FRONT ROYAL*   FAIR      55  23  28 NW7G16    30.30R
LURAY*         FAIR      57  23  26 N7        30.30S
NEW MARKET*    FAIR      56  18  22 N8G16     30.29S
STAUNTON*      FAIR      57  21  24 N9        30.30F
WAYNESBORO*    FAIR      57  21  25 N7        30.28S

$$

WVZ021-048>050-054>055-210000-
EASTERN WEST VIRGINIA PANHANDLE

CITY           SKY/WX    TMP DP  RH WIND       PRES   REMARKS
MARTINSBURG    FAIR      56  25  30 N14       30.30R
PETERSBURG*    FAIR      55  22  28 NW8       30.32S

$$

VAZ036>039-050-210000-
CENTRAL FOOTHILLS

CITY           SKY/WX    TMP DP  RH WIND       PRES   REMARKS
CHARLOTTESVILL FAIR      62  20  19 N8        30.28R
CULPEPER*      FAIR      60  20  20 N9        30.30R
ORANGE*        FAIR      59  23  25 CALM      30.28S
GORDONSVILLE*  FAIR      61  21  21 N3        30.28R
WARRENTON*     FAIR      60  18  20 N9        30.29R

$$

VAZ055>057-210000-
NORTH AND CENTRAL PIEDMONT

CITY           SKY/WX    TMP DP  RH WIND       PRES   REMARKS
FREDERICKSBRG* FAIR      60  28  29 N9        30.28R
STAFFORD*      FAIR      59  25  26 N12G17    30.32R

$$

NCZ024-NYZ072-PAZ021-071-VAZ022-071-210000-
OTHER REGIONAL OBSERVATIONS

CITY           SKY/WX    TMP DP  RH WIND       PRES   REMARKS
NEW YORK CITY  FAIR      45  23  42 NW10G21   30.29R
PHILADELPHIA   FAIR      52  24  33 NW18G24   30.28R
PITTSBURGH     FAIR      51  16  24 NW16      30.38R
ROANOKE        FAIR      61  21  21 NW9       30.30R
RICHMOND       FAIR      62  23  22 N13       30.27S
RALEIGH        FAIR      63  27  25 N3        30.28S

$$

ANZ530>537-210000-
MARINE OBSERVATIONS

STATION/POSITION TIME  TEMP    WIND        PRES
                       AIR SEA DIR/SP/G
                 (UTC) (F)     (DEG/KT/KT) (MB)
THOMAS PT LIGHT  2300   56 51  330/ 13/ 14 1026.2R
BALT KEY BRIDGE  2236   56     310/ 13/ 15 1025.0R
COVE POINT       2236   53      10/  3/  4 1025.8S
LEWISETTA        2236   58 53  340/  7/ 10 1025.1R
SOLOMONS ISLAND  2236   57 53  350/ 10/ 14 1024.8R
PINEY POINT      2248          360/ 10/ 11   N/A

$$





USA.gov is the U.S. government's official web portal to all federal, state and local government web resources and services.